Location: Aragnouet
(42.7874°N, 0.2165°E)
Time: 19:58:13
(UTC+00:00)

Cosmos 921 Rocket - Pass Details

Date: 09 April 2020
Orbit: 572 x 632 km, 75.8° (Epoch: 31 May)

Event Time Altitude Azimuth Distance (km) Brightness Sun altitude
Rises 19:00:19 0° 356° (N) 2,788 6.7 -5.4°
Reaches altitude 10° 19:02:59 10° 13° (NNE) 1,886 5.6 -5.8°
Maximum altitude 19:06:10 21° 62° (ENE) 1,331 4.4 -6.4°
Drops below altitude 10° 19:09:20 10° 112° (ESE) 1,887 4.9 -6.9°
Enters shadow 19:09:43 - 115° (ESE) 2,003 5.0 -7.0°
